Location: Newark
(27.9675°N, 86.8869°E)
Time: 16:58:43
(UTC+00:00)

Vanguard 3 - Pass Details

Date: 30 October 2019
Orbit: 508 x 3263 km, 33.4° (Epoch: 20 November)

Event Time Altitude Azimuth Distance (km) Brightness Sun altitude
Rises 13:21:25 0° 241° (WSW) 5,869 12.6 -25.1°
Reaches altitude 10° 13:26:00 10° 240° (WSW) 4,413 11.7 -26.1°
Maximum altitude 13:36:54 74° 158° (SSE) 1,274 7.9 -28.5°
Enters shadow 13:37:49 66° 108° (ESE) 1,263 7.7 -28.7°
Drops below altitude 10° 13:42:51 10° 74° (ENE) 2,509 - -29.8°
Sets 13:44:49 0° 72° (ENE) 3,233 - -30.2°
